sat.trackr.live / text

‹ back to catalog

TIANLIAN 2-02

NORAD 50005 · 2021-124A

PAYLOAD ACTIVE UNKNOWN

§ Identity

Operator
Country
PRC
Launch date
2021-12-13
Launch site
XICLF
Launch vehicle
Mass (kg)
RCS (m²)

Purposes: comms

External: N2YO · Heavens-Above · Gunter

§ Orbital elements

Epoch: 2026-09-09T13:09:18.846720Z

Period
1,436.10 min
Inclination
1.0135°
Eccentricity
0.0003506
Mean motion
1.00271731 rev/d
Perigee alt
35,771.8 km
Apogee alt
35,801.4 km
Semi-major
42,164.7 km
B*
0.0000e+0
RAAN
84.6659°
Arg perigee
152.6249°
Mean anomaly
119.5981°
Rev number
1,746

§ Raw data

TIANLIAN 2-021 50005U 21124A   26252.54813480 -.00000035  00000+0  00000+0 0  99972 50005   1.0135  84.6659 0003506 152.6249 119.5981  1.00271731 17467

JSON: /api/v1/satellites/50005 · /tle

For live sub-satellite position, see the globe view (requires WebGL).

§ Visibility from observer

Set your observer location to see the next 7 days of passes ≥ 10°. The values pass through the URL so the page stays shareable.

No JS? Fill the form by hand. The geolocation button needs JavaScript.